Flag for Hungary Weather past 2 weeks in Sopron, Hungary

Now
72 °F

Mild.


Feels Like: 73 °F
Forecast: 64 / 79 °F
Wind: 3 mph from North

Location: Eisenstadt

Current Time: Jul 31, 2014 at 2:02:19 PM

Latest Report: Jul 31, 2014 at 1:00 PM


Visibility: N/A

Pressure: 29.82 "Hg

Humidity: 77%

Dew point: 65 °F

Location of SopronLocation

Historic Weather in Sopron — Graph

°F

Sopron temperature yesterday

Maximum temperature yesterday: 78 °F (at 2:00 PM)
Minimum temperature yesterday: 64 °F (at 6:00 AM)
Average temperature yesterday: 69 °F

Past Weeks' High & Low Weather Summary

 TemperatureHumidityPressure
High91 °F (Jul 20, 4:00 PM)97% (Jul 29, 6:00 AM)30.09 "Hg (Jul 29, 6:00 AM)
Low60 °F (Jul 26, 4:00 AM)32% (Jul 17, 5:00 PM)29.65 "Hg (Jul 21, 6:00 PM)
Average73 °F72%29.87 "Hg
* Reported Jul 16 12:00 Noon — Jul 31 12:00 Noon, Sopron, Weather by CustomWeather, © 2014

Note: Actual official high and low records may vary slightly from our data, if they occured in-between our weather recording intervals... More about our weather records

Advertising

Sopron weather history for previous 24 hours

 ConditionsComfort  
Time TempWeatherWind HumidityBarometerVisibility
12:00 PM
Jul 31
70 °FMild.3 mph85%29.82 "HgN/A
11:00 AM68 °FOvercast.2 mph88%29.82 "Hg7 mi
10:00 AM67 °FMild.3 mph90%29.81 "HgN/A
9:00 AM67 °FMild.2 mph91%29.79 "HgN/A
8:00 AM66 °FOvercast.2 mph91%29.78 "Hg7 mi
7:00 AM66 °FOvercast.1 mph92%29.77 "Hg7 mi
6:00 AM65 °FOvercast.2 mph94%29.76 "Hg6 mi
5:00 AM65 °FOvercast.1 mph94%29.76 "Hg6 mi
4:00 AM65 °FMild.1 mph97%29.73 "HgN/A
3:00 AM65 °FMild.1 mph97%29.74 "HgN/A
2:00 AM66 °FMild.1 mph95%29.76 "HgN/A
1:00 AM66 °FMild.1 mph93%29.73 "HgN/A
12:00 AM67 °FSprinkles. Overcast.1 mph93%29.72 "HgN/A
11:00 PM
Jul 30
68 °FMild.2 mph94%29.70 "HgN/A
10:00 PM67 °FFog.3 mph95%29.72 "HgN/A
9:00 PM66 °FMild.3 mph94%29.75 "HgN/A
8:00 PM65 °FRain. Overcast.5 mph93%29.74 "Hg5 mi
7:00 PM67 °FSprinkles. Cloudy.1 mph88%29.71 "HgN/A
6:00 PM70 °FMild.2 mph94%29.73 "HgN/A
5:00 PM72 °FOvercast.2 mph88%29.70 "Hg6 mi
4:00 PM70 °FFog.1 mph87%29.71 "HgN/A
3:00 PM70 °FMild.6 mph87%29.71 "HgN/A
2:00 PM78 °FOvercast.3 mph68%29.71 "Hg6 mi
Weather by CustomWeather, © 2014

See weather overviewHow to use our weather pages